GTI8540 MMSM-KLAX

Flight info

Callsign GTI8540
Flight time 3h 21m
Altitude 32000
Route ATURO1Q ATURO UT133 OTAKA UT134 ZCL UT10 PPE J93 ASUTA DCT AMMOR OLAAA2
Aircraft B77L/H-SDE1E2E3FGHIJ2J3J4J5M1RWXY/LB1D1

Departure

Time 2026-04-20 22:25
Airport Felipe Ángeles International Airport (MMSM)

Arrival

Time 2026-04-21 01:47
Airport Los Angeles International Airport (KLAX)
Time Latitude Longitude Altitude Speed Heading
2026-04-20 22:09 19.75424 -99.00835 7387 ft 0 kts 139°
2026-04-20 22:13 19.75429 -99.00840 7387 ft 2 kts 139°
2026-04-20 22:14 19.75441 -99.00851 7387 ft 2 kts 139°
2026-04-20 22:14 19.75453 -99.00861 7387 ft 2 kts 150°
2026-04-20 22:14 19.75466 -99.00867 7387 ft 2 kts 166°
2026-04-20 22:14 19.75481 -99.00869 7387 ft 2 kts 179°
2026-04-20 22:15 19.75496 -99.00868 7387 ft 2 kts 193°
2026-04-20 22:15 19.75510 -99.00863 7387 ft 2 kts 207°
2026-04-20 22:15 19.75523 -99.00854 7387 ft 2 kts 221°
2026-04-20 22:15 19.75529 -99.00848 7387 ft 0 kts 229°
2026-04-20 22:16 19.75530 -99.00847 7387 ft 0 kts 229°
2026-04-20 22:17 19.75529 -99.00849 7387 ft 1 kts 229°
2026-04-20 22:17 19.75504 -99.00879 7387 ft 8 kts 229°
2026-04-20 22:18 19.75457 -99.00945 7387 ft 12 kts 249°
2026-04-20 22:18 19.75483 -99.01022 7387 ft 11 kts 316°
2026-04-20 22:18 19.75526 -99.01083 7387 ft 9 kts 282°
2026-04-20 22:18 19.75507 -99.01138 7389 ft 7 kts 232°
2026-04-20 22:19 19.75472 -99.01181 7390 ft 9 kts 229°
2026-04-20 22:19 19.75419 -99.01247 7393 ft 13 kts 230°
2026-04-20 22:19 19.75346 -99.01336 7394 ft 19 kts 229°
2026-04-20 22:19 19.75241 -99.01466 7390 ft 26 kts 229°
2026-04-20 22:20 19.75125 -99.01604 7389 ft 21 kts 230°
2026-04-20 22:20 19.75023 -99.01730 7390 ft 24 kts 229°
2026-04-20 22:20 19.74892 -99.01888 7385 ft 31 kts 228°
2026-04-20 22:20 19.74741 -99.02074 7377 ft 37 kts 229°
2026-04-20 22:21 19.74607 -99.02238 7385 ft 26 kts 228°
2026-04-20 22:21 19.74472 -99.02403 7381 ft 32 kts 228°
2026-04-20 22:21 19.74321 -99.02590 7386 ft 33 kts 229°
2026-04-20 22:21 19.74158 -99.02787 7384 ft 38 kts 229°
2026-04-20 22:22 19.74007 -99.02972 7383 ft 18 kts 229°
2026-04-20 22:22 19.73913 -99.03088 7382 ft 22 kts 231°
2026-04-20 22:22 19.73798 -99.03233 7378 ft 29 kts 228°
2026-04-20 22:22 19.73653 -99.03408 7381 ft 31 kts 229°
2026-04-20 22:23 19.73504 -99.03588 7382 ft 34 kts 229°
2026-04-20 22:23 19.73378 -99.03744 7376 ft 21 kts 230°
2026-04-20 22:23 19.73319 -99.03832 7371 ft 7 kts 271°
2026-04-20 22:23 19.73342 -99.03886 7370 ft 8 kts 299°
2026-04-20 22:24 19.73375 -99.03920 7372 ft 4 kts 323°
2026-04-20 22:24 19.73391 -99.03932 7372 ft 2 kts 326°
2026-04-20 22:24 19.73426 -99.03934 7375 ft 9 kts 29°
2026-04-20 22:24 19.73466 -99.03895 7377 ft 5 kts 47°
2026-04-20 22:25 19.73572 -99.03767 7382 ft 54 kts 49°
2026-04-20 22:25 19.73984 -99.03263 7379 ft 124 kts 49°
2026-04-20 22:25 19.74688 -99.02398 7404 ft 181 kts 50°
2026-04-20 22:25 19.75507 -99.01357 8062 ft 182 kts 50°
2026-04-20 22:26 19.76330 -99.00320 8703 ft 194 kts 50°
2026-04-20 22:26 19.77207 -98.99206 9457 ft 201 kts 49°
2026-04-20 22:26 19.78088 -98.98110 10374 ft 198 kts 48°
2026-04-20 22:27 19.79900 -98.95969 11849 ft 196 kts 47°
2026-04-20 22:27 19.80885 -98.94943 12206 ft 210 kts 36°
2026-04-20 22:27 19.82279 -98.94128 12214 ft 247 kts 21°
2026-04-20 22:27 19.84068 -98.93729 12158 ft 269 kts 360°
2026-04-20 22:28 19.85932 -98.94094 12221 ft 279 kts 340°
2026-04-20 22:28 19.87608 -98.95112 12044 ft 276 kts 316°
2026-04-20 22:28 19.88849 -98.96685 12157 ft 280 kts 308°
2026-04-20 22:28 19.89963 -98.98376 12257 ft 282 kts 307°
2026-04-20 22:29 19.91071 -99.00086 12270 ft 280 kts 304°
2026-04-20 22:29 19.92183 -99.01793 12400 ft 283 kts 313°
2026-04-20 22:29 19.93709 -99.03104 12288 ft 289 kts 334°
2026-04-20 22:29 19.95683 -99.03693 12772 ft 300 kts 356°
2026-04-20 22:30 19.97774 -99.03861 13689 ft 301 kts 356°
2026-04-20 22:30 19.99864 -99.04132 14558 ft 306 kts 352°
2026-04-20 22:30 20.02007 -99.04530 15093 ft 323 kts 350°
2026-04-20 22:30 20.04276 -99.04967 15621 ft 341 kts 350°
2026-04-20 22:31 20.06696 -99.05279 16178 ft 357 kts 358°
2026-04-20 22:31 20.09237 -99.05137 16746 ft 373 kts
2026-04-20 22:31 20.11817 -99.04505 17275 ft 390 kts 16°
2026-04-20 22:31 20.14481 -99.03658 17986 ft 400 kts 16°
2026-04-20 22:32 20.17126 -99.02814 18928 ft 403 kts 15°
2026-04-20 22:32 20.19836 -99.01971 19906 ft 404 kts 13°
2026-04-20 22:32 20.22583 -99.01473 20760 ft 407 kts
2026-04-20 22:32 20.25429 -99.01465 21609 ft 409 kts 353°
2026-04-20 22:33 20.28213 -99.01955 22442 ft 410 kts 344°
2026-04-20 22:33 20.30943 -99.02953 23248 ft 413 kts 334°
2026-04-20 22:33 20.33476 -99.04421 23924 ft 418 kts 324°
2026-04-20 22:33 20.35770 -99.06358 24616 ft 421 kts 314°
2026-04-20 22:34 20.37712 -99.08688 25363 ft 424 kts 304°
2026-04-20 22:34 20.39249 -99.11350 26145 ft 425 kts 294°
2026-04-20 22:34 20.40418 -99.14236 26933 ft 428 kts 290°
2026-04-20 22:34 20.41538 -99.17180 27723 ft 432 kts 290°
2026-04-20 22:35 20.42685 -99.20145 28506 ft 436 kts 290°
2026-04-20 22:35 20.44011 -99.23077 29190 ft 444 kts 296°
2026-04-20 22:35 20.45745 -99.25837 29371 ft 457 kts 305°
2026-04-20 22:35 20.47963 -99.28354 29867 ft 471 kts 314°
2026-04-20 22:36 20.50437 -99.30582 31078 ft 464 kts 316°
2026-04-20 22:36 20.52884 -99.32745 31979 ft 458 kts 316°
2026-04-20 22:36 20.55361 -99.34943 32323 ft 455 kts 315°
2026-04-20 22:36 20.57781 -99.37103 32351 ft 452 kts 315°
2026-04-20 22:37 20.62607 -99.41428 32346 ft 448 kts 315°
2026-04-20 22:37 20.67359 -99.45709 32345 ft 449 kts 315°
2026-04-20 22:38 20.72113 -99.50000 32327 ft 448 kts 315°
2026-04-20 22:38 20.76876 -99.54308 32326 ft 448 kts 315°
2026-04-20 22:39 20.81627 -99.58610 32322 ft 447 kts 315°
2026-04-20 22:39 20.86390 -99.62929 32322 ft 449 kts 315°
2026-04-20 22:40 20.91185 -99.67279 32323 ft 447 kts 314°
2026-04-20 22:40 20.95940 -99.71598 32309 ft 447 kts 314°
2026-04-20 22:41 21.00677 -99.75904 32298 ft 448 kts 314°
2026-04-20 22:41 21.04979 -99.80602 32306 ft 438 kts 301°
2026-04-20 22:42 21.08486 -99.85936 32325 ft 437 kts 300°
2026-04-20 22:42 21.11976 -99.91300 32341 ft 437 kts 300°
2026-04-20 22:43 21.15439 -99.96629 32338 ft 435 kts 300°
2026-04-20 22:43 21.18909 -100.01975 32331 ft 441 kts 300°
2026-04-20 22:44 21.20674 -100.04703 32367 ft 457 kts 300°
2026-04-20 22:44 21.22504 -100.07526 32831 ft 464 kts 300°
2026-04-20 22:44 21.24350 -100.10371 33834 ft 460 kts 300°
2026-04-20 22:44 21.26128 -100.13110 35117 ft 450 kts 300°
2026-04-20 22:45 21.27901 -100.15846 36072 ft 446 kts 299°
2026-04-20 22:45 21.29677 -100.18591 36323 ft 448 kts 300°
2026-04-20 22:45 21.33198 -100.24034 36334 ft 441 kts 300°
2026-04-20 22:46 21.36679 -100.29424 36340 ft 443 kts 300°
2026-04-20 22:46 21.40186 -100.34856 36342 ft 440 kts 300°
2026-04-20 22:47 21.43681 -100.40277 36345 ft 443 kts 300°
2026-04-20 22:47 21.47175 -100.45701 36357 ft 441 kts 300°
2026-04-20 22:48 21.50676 -100.51141 36365 ft 442 kts 300°
2026-04-20 22:48 21.54155 -100.56551 36369 ft 441 kts 299°
2026-04-20 22:49 21.57631 -100.61964 36354 ft 441 kts 300°
2026-04-20 22:49 21.61130 -100.67416 36374 ft 441 kts 299°
2026-04-20 22:50 21.64592 -100.72817 36378 ft 440 kts 299°
2026-04-20 22:50 21.68059 -100.78232 36381 ft 442 kts 299°
2026-04-20 22:51 21.71539 -100.83669 36380 ft 440 kts 299°
2026-04-20 22:51 21.75000 -100.89085 36378 ft 441 kts 300°
2026-04-20 22:52 21.78468 -100.94517 36387 ft 440 kts 300°
2026-04-20 22:52 21.81937 -100.99956 36389 ft 442 kts 299°
2026-04-20 22:53 21.85399 -101.05387 36412 ft 440 kts 300°
2026-04-20 22:53 21.88871 -101.10841 36413 ft 440 kts 299°
2026-04-20 22:54 21.92321 -101.16267 36423 ft 441 kts 300°
2026-04-20 22:54 21.95786 -101.21719 36427 ft 441 kts 300°
2026-04-20 22:55 21.99237 -101.27158 36414 ft 441 kts 300°
2026-04-20 22:55 22.02721 -101.32635 36416 ft 442 kts 300°
2026-04-20 22:56 22.06200 -101.38094 36416 ft 443 kts 300°
2026-04-20 22:56 22.09667 -101.43539 36419 ft 438 kts 300°
2026-04-20 22:57 22.13133 -101.48991 36420 ft 443 kts 300°
2026-04-20 22:57 22.16603 -101.54452 36419 ft 441 kts 300°
2026-04-20 22:58 22.20045 -101.59879 36411 ft 440 kts 300°
2026-04-20 22:58 22.23513 -101.65349 36409 ft 440 kts 300°
2026-04-20 22:59 22.26977 -101.70821 36412 ft 440 kts 300°
2026-04-20 22:59 22.30421 -101.76266 36399 ft 440 kts 300°
2026-04-20 23:00 22.33872 -101.81725 36396 ft 440 kts 300°
2026-04-20 23:00 22.37308 -101.87169 36387 ft 437 kts 300°
2026-04-20 23:01 22.40749 -101.92626 36380 ft 440 kts 300°
2026-04-20 23:01 22.44179 -101.98071 36383 ft 438 kts 300°
2026-04-20 23:02 22.47611 -102.03526 36379 ft 439 kts 300°
2026-04-20 23:02 22.51010 -102.08929 36382 ft 435 kts 300°
2026-04-20 23:03 22.54440 -102.14393 36379 ft 439 kts 301°
2026-04-20 23:03 22.57857 -102.19840 36386 ft 438 kts 301°
2026-04-20 23:04 22.61269 -102.25284 36381 ft 436 kts 301°
2026-04-20 23:04 22.64682 -102.30734 36395 ft 438 kts 300°
2026-04-20 23:05 22.68075 -102.36159 36404 ft 434 kts 301°
2026-04-20 23:05 22.71468 -102.41592 36413 ft 440 kts 301°
2026-04-20 23:06 22.74880 -102.47057 36415 ft 437 kts 301°
2026-04-20 23:06 22.78265 -102.52486 36416 ft 436 kts 301°
2026-04-20 23:07 22.81663 -102.57941 36417 ft 437 kts 301°
2026-04-20 23:07 22.85050 -102.63386 36422 ft 436 kts 301°
2026-04-20 23:08 22.88491 -102.68842 36429 ft 437 kts 304°
2026-04-20 23:08 22.92628 -102.73695 36437 ft 441 kts 310°
2026-04-20 23:09 22.96900 -102.78442 36440 ft 440 kts 310°
2026-04-20 23:09 23.01139 -102.83164 36443 ft 438 kts 310°
2026-04-20 23:10 23.05421 -102.87947 36453 ft 443 kts 310°
2026-04-20 23:10 23.09670 -102.92696 36453 ft 438 kts 309°
2026-04-20 23:11 23.13962 -102.97501 36446 ft 439 kts 310°
2026-04-20 23:11 23.18201 -103.02252 36443 ft 440 kts 309°
2026-04-20 23:12 23.22465 -103.07035 36425 ft 439 kts 309°
2026-04-20 23:12 23.26695 -103.11785 36421 ft 439 kts 309°
2026-04-20 23:13 23.30965 -103.16586 36410 ft 441 kts 309°
2026-04-20 23:13 23.35183 -103.21331 36413 ft 438 kts 309°
2026-04-20 23:14 23.39437 -103.26122 36410 ft 437 kts 309°
2026-04-20 23:14 23.43681 -103.30908 36426 ft 439 kts 309°
2026-04-20 23:15 23.47900 -103.35667 36431 ft 436 kts 309°
2026-04-20 23:15 23.52129 -103.40447 36438 ft 440 kts 309°
2026-04-20 23:16 23.56361 -103.45232 36440 ft 438 kts 309°
2026-04-20 23:16 23.60580 -103.50006 36445 ft 437 kts 309°
2026-04-20 23:17 23.64812 -103.54802 36433 ft 437 kts 309°
2026-04-20 23:17 23.69022 -103.59577 36421 ft 438 kts 309°
2026-04-20 23:18 23.73231 -103.64354 36417 ft 437 kts 309°
2026-04-20 23:18 23.77462 -103.69163 36429 ft 437 kts 309°
2026-04-20 23:19 23.81671 -103.73953 36427 ft 440 kts 309°
2026-04-20 23:19 23.85917 -103.78786 36421 ft 436 kts 309°
2026-04-20 23:20 23.90119 -103.83579 36408 ft 439 kts 309°
2026-04-20 23:20 23.94338 -103.88395 36395 ft 439 kts 309°
2026-04-20 23:21 23.98559 -103.93218 36388 ft 439 kts 309°
2026-04-20 23:21 24.02803 -103.98072 36380 ft 441 kts 308°
2026-04-20 23:22 24.07020 -104.02898 36379 ft 438 kts 309°
2026-04-20 23:22 24.11242 -104.07737 36373 ft 437 kts 309°
2026-04-20 23:23 24.15448 -104.12563 36352 ft 437 kts 309°
2026-04-20 23:23 24.19644 -104.17381 36356 ft 437 kts 308°
2026-04-20 23:24 24.23843 -104.22208 36339 ft 435 kts 309°
2026-04-20 23:24 24.28021 -104.27016 36352 ft 438 kts 309°
2026-04-20 23:25 24.32185 -104.31811 36333 ft 433 kts 309°
2026-04-20 23:25 24.36352 -104.36619 36351 ft 437 kts 309°
2026-04-20 23:26 24.40516 -104.41423 36355 ft 432 kts 309°
2026-04-20 23:26 24.44663 -104.46216 36382 ft 433 kts 309°
2026-04-20 23:27 24.48823 -104.51027 36374 ft 432 kts 309°
2026-04-20 23:27 24.52945 -104.55800 36378 ft 433 kts 309°
2026-04-20 23:28 24.57074 -104.60587 36365 ft 432 kts 309°
2026-04-20 23:28 24.61197 -104.65371 36355 ft 434 kts 309°
2026-04-20 23:29 24.65349 -104.70192 36375 ft 430 kts 309°
2026-04-20 23:29 24.69443 -104.74953 36378 ft 432 kts 308°
2026-04-20 23:30 24.73576 -104.79762 36380 ft 429 kts 308°
2026-04-20 23:30 24.77673 -104.84536 36377 ft 432 kts 308°
2026-04-20 23:31 24.81766 -104.89308 36387 ft 427 kts 308°
2026-04-20 23:31 24.85845 -104.94071 36387 ft 430 kts 309°
2026-04-20 23:32 24.89947 -104.98865 36373 ft 427 kts 308°
2026-04-20 23:32 24.94014 -105.03622 36395 ft 429 kts 308°
2026-04-20 23:33 24.98086 -105.08392 36387 ft 427 kts 308°
2026-04-20 23:33 25.02142 -105.13145 36369 ft 427 kts 308°
2026-04-20 23:34 25.06207 -105.17915 36383 ft 426 kts 308°
2026-04-20 23:34 25.10254 -105.22670 36395 ft 424 kts 308°
2026-04-20 23:35 25.16357 -105.29849 36399 ft 425 kts 309°
2026-04-20 23:36 25.20396 -105.34607 36394 ft 427 kts 309°
2026-04-20 23:36 25.24430 -105.39362 36404 ft 424 kts 309°
2026-04-20 23:37 25.28476 -105.44137 36382 ft 425 kts 308°
2026-04-20 23:37 25.32513 -105.48907 36391 ft 425 kts 308°
2026-04-20 23:38 25.36526 -105.53652 36405 ft 425 kts 308°
2026-04-20 23:38 25.40562 -105.58432 36414 ft 425 kts 309°
2026-04-20 23:39 25.44602 -105.63219 36428 ft 425 kts 308°
2026-04-20 23:39 25.48638 -105.68008 36435 ft 422 kts 308°
2026-04-20 23:40 25.52648 -105.72769 36447 ft 424 kts 308°
2026-04-20 23:40 25.56654 -105.77531 36447 ft 423 kts 308°
2026-04-20 23:41 25.60668 -105.82310 36458 ft 422 kts 308°
2026-04-20 23:41 25.64669 -105.87077 36467 ft 423 kts 308°
2026-04-20 23:42 25.68645 -105.91814 36450 ft 421 kts 308°
2026-04-20 23:42 25.72654 -105.96593 36476 ft 422 kts 308°
2026-04-20 23:43 25.76631 -106.01338 36477 ft 421 kts 308°
2026-04-20 23:43 25.80631 -106.06117 36478 ft 423 kts 308°
2026-04-20 23:44 25.84605 -106.10867 36480 ft 419 kts 308°
2026-04-20 23:44 25.88609 -106.15662 36479 ft 422 kts 308°
2026-04-20 23:45 25.92557 -106.20392 36474 ft 419 kts 308°
2026-04-20 23:45 25.96527 -106.25156 36472 ft 421 kts 308°
2026-04-20 23:46 26.00483 -106.29906 36460 ft 420 kts 308°
2026-04-20 23:46 26.04479 -106.34711 36466 ft 421 kts 308°
2026-04-20 23:47 26.08450 -106.39488 36456 ft 419 kts 308°
2026-04-20 23:47 26.12411 -106.44260 36461 ft 420 kts 308°
2026-04-20 23:48 26.16349 -106.49010 36446 ft 419 kts 308°
2026-04-20 23:48 26.20313 -106.53798 36452 ft 420 kts 308°
2026-04-20 23:49 26.24273 -106.58583 36440 ft 420 kts 308°
2026-04-20 23:49 26.28209 -106.63347 36435 ft 420 kts 308°
2026-04-20 23:50 26.32173 -106.68147 36447 ft 419 kts 308°
2026-04-20 23:50 26.36118 -106.72932 36433 ft 419 kts 307°
2026-04-20 23:51 26.40056 -106.77713 36426 ft 419 kts 307°
2026-04-20 23:51 26.43994 -106.82497 36420 ft 419 kts 307°
2026-04-20 23:52 26.47920 -106.87278 36424 ft 419 kts 307°
2026-04-20 23:52 26.51862 -106.92084 36428 ft 417 kts 307°
2026-04-20 23:53 26.55772 -106.96859 36424 ft 419 kts 307°
2026-04-20 23:53 26.59708 -107.01668 36430 ft 419 kts 307°
2026-04-20 23:54 26.63631 -107.06468 36427 ft 419 kts 307°
2026-04-20 23:54 26.67574 -107.11298 36418 ft 418 kts 307°
2026-04-20 23:55 26.71467 -107.16071 36405 ft 419 kts 307°
2026-04-20 23:55 26.75418 -107.20921 36404 ft 419 kts 307°
2026-04-20 23:56 26.79300 -107.25691 36390 ft 417 kts 307°
2026-04-20 23:56 26.83242 -107.30541 36363 ft 420 kts 307°
2026-04-20 23:57 26.87146 -107.35348 36345 ft 418 kts 307°
2026-04-20 23:57 26.91060 -107.40175 36323 ft 419 kts 307°
2026-04-20 23:58 26.94965 -107.44994 36318 ft 418 kts 307°
2026-04-20 23:58 26.98874 -107.49824 36316 ft 419 kts 307°
2026-04-20 23:59 27.02793 -107.54672 36296 ft 419 kts 307°
2026-04-20 23:59 27.06687 -107.59495 36292 ft 418 kts 307°
2026-04-21 00:00 27.10624 -107.64376 36254 ft 419 kts 307°
2026-04-21 00:00 27.14556 -107.69261 36286 ft 418 kts 306°
2026-04-21 00:01 27.18472 -107.74133 36266 ft 419 kts 306°
2026-04-21 00:01 27.22348 -107.78960 36274 ft 418 kts 306°
2026-04-21 00:02 27.26234 -107.83805 36276 ft 418 kts 306°
2026-04-21 00:02 27.30124 -107.88662 36292 ft 420 kts 306°
2026-04-21 00:03 27.34007 -107.93512 36299 ft 417 kts 306°
2026-04-21 00:03 27.37891 -107.98372 36324 ft 419 kts 306°
2026-04-21 00:04 27.41778 -108.03240 36314 ft 420 kts 306°
2026-04-21 00:04 27.45684 -108.08138 36308 ft 419 kts 306°
2026-04-21 00:05 27.49581 -108.13029 36294 ft 417 kts 306°
2026-04-21 00:05 27.53455 -108.17899 36261 ft 420 kts 306°
2026-04-21 00:06 27.57343 -108.22789 36248 ft 418 kts 306°
2026-04-21 00:06 27.61191 -108.27636 36242 ft 417 kts 306°
2026-04-21 00:07 27.65055 -108.32509 36238 ft 419 kts 306°
2026-04-21 00:07 27.68941 -108.37415 36269 ft 419 kts 306°
2026-04-21 00:08 27.72819 -108.42317 36289 ft 418 kts 306°
2026-04-21 00:08 27.76682 -108.47205 36291 ft 417 kts 306°
2026-04-21 00:09 27.80552 -108.52109 36293 ft 420 kts 306°
2026-04-21 00:09 27.84407 -108.56996 36255 ft 417 kts 306°
2026-04-21 00:10 27.88266 -108.61888 36236 ft 418 kts 306°
2026-04-21 00:10 27.92134 -108.66794 36199 ft 418 kts 306°
2026-04-21 00:11 27.95994 -108.71695 36190 ft 418 kts 306°
2026-04-21 00:11 27.99851 -108.76598 36181 ft 417 kts 306°
2026-04-21 00:12 28.03708 -108.81508 36219 ft 417 kts 306°
2026-04-21 00:12 28.07550 -108.86405 36225 ft 416 kts 306°
2026-04-21 00:13 28.11409 -108.91330 36247 ft 420 kts 306°
2026-04-21 00:13 28.15255 -108.96240 36254 ft 414 kts 306°
2026-04-21 00:14 28.19093 -109.01151 36234 ft 418 kts 306°
2026-04-21 00:14 28.22932 -109.06065 36213 ft 415 kts 306°
2026-04-21 00:15 28.26769 -109.10986 36188 ft 417 kts 306°
2026-04-21 00:15 28.30594 -109.15900 36169 ft 416 kts 306°
2026-04-21 00:16 28.34441 -109.20855 36143 ft 418 kts 306°
2026-04-21 00:16 28.38273 -109.25796 36123 ft 419 kts 306°
2026-04-21 00:17 28.42100 -109.30736 36124 ft 419 kts 306°
2026-04-21 00:17 28.45955 -109.35717 36096 ft 417 kts 306°
2026-04-21 00:18 28.49779 -109.40666 36078 ft 420 kts 306°
2026-04-21 00:18 28.53628 -109.45651 36041 ft 418 kts 306°
2026-04-21 00:19 28.57451 -109.50610 36002 ft 418 kts 305°
2026-04-21 00:19 28.61299 -109.55607 35998 ft 418 kts 305°
2026-04-21 00:20 28.65114 -109.60568 36001 ft 419 kts 306°
2026-04-21 00:20 28.68941 -109.65549 36015 ft 418 kts 305°
2026-04-21 00:21 28.72796 -109.70573 36018 ft 418 kts 305°
2026-04-21 00:21 28.76634 -109.75582 36011 ft 420 kts 305°
2026-04-21 00:22 28.80455 -109.80573 36016 ft 420 kts 305°
2026-04-21 00:22 28.84258 -109.85547 36021 ft 418 kts 305°
2026-04-21 00:23 28.88082 -109.90556 36025 ft 420 kts 305°
2026-04-21 00:23 28.91918 -109.95586 36026 ft 418 kts 305°
2026-04-21 00:24 28.95736 -110.00599 36023 ft 420 kts 305°
2026-04-21 00:24 28.99556 -110.05619 36032 ft 419 kts 305°
2026-04-21 00:25 29.03377 -110.10649 36029 ft 420 kts 305°
2026-04-21 00:25 29.07188 -110.15670 36022 ft 419 kts 305°
2026-04-21 00:26 29.11044 -110.20758 36012 ft 422 kts 305°
2026-04-21 00:26 29.14851 -110.25787 36017 ft 420 kts 305°
2026-04-21 00:27 29.18667 -110.30833 36017 ft 419 kts 305°
2026-04-21 00:27 29.22491 -110.35898 36017 ft 421 kts 305°
2026-04-21 00:28 29.26294 -110.40939 36012 ft 419 kts 306°
2026-04-21 00:28 29.30090 -110.45978 36009 ft 420 kts 305°
2026-04-21 00:29 29.33899 -110.51042 36006 ft 420 kts 306°
2026-04-21 00:29 29.37700 -110.56100 36006 ft 421 kts 306°
2026-04-21 00:30 29.41518 -110.61185 35994 ft 420 kts 306°
2026-04-21 00:30 29.45341 -110.66280 36010 ft 420 kts 305°
2026-04-21 00:31 29.49146 -110.71360 36003 ft 421 kts 305°
2026-04-21 00:31 29.52939 -110.76428 36010 ft 420 kts 306°
2026-04-21 00:32 29.56751 -110.81529 36013 ft 419 kts 306°
2026-04-21 00:32 29.60545 -110.86613 36010 ft 419 kts 305°
2026-04-21 00:33 29.64315 -110.91670 36024 ft 418 kts 306°
2026-04-21 00:33 29.68112 -110.96770 36019 ft 420 kts 305°
2026-04-21 00:34 29.71908 -111.01875 36016 ft 421 kts 306°
2026-04-21 00:34 29.75704 -111.06987 36027 ft 420 kts 306°
2026-04-21 00:35 29.79489 -111.12090 36031 ft 420 kts 306°
2026-04-21 00:35 29.83264 -111.17188 36037 ft 420 kts 306°
2026-04-21 00:36 29.87071 -111.22334 36046 ft 421 kts 306°
2026-04-21 00:36 29.90846 -111.27443 36043 ft 420 kts 306°
2026-04-21 00:37 29.94632 -111.32574 36052 ft 420 kts 306°
2026-04-21 00:37 29.98409 -111.37701 36059 ft 421 kts 306°
2026-04-21 00:38 30.02203 -111.42854 36060 ft 422 kts 306°
2026-04-21 00:38 30.05995 -111.48013 36061 ft 422 kts 306°
2026-04-21 00:39 30.09783 -111.53175 36062 ft 422 kts 306°
2026-04-21 00:39 30.13595 -111.58375 36056 ft 423 kts 306°
2026-04-21 00:40 30.17390 -111.63557 36057 ft 424 kts 306°
2026-04-21 00:40 30.21191 -111.68755 36070 ft 423 kts 306°
2026-04-21 00:41 30.24975 -111.73938 36071 ft 424 kts 306°
2026-04-21 00:41 30.28774 -111.79147 36056 ft 424 kts 306°
2026-04-21 00:42 30.32579 -111.84371 36042 ft 424 kts 306°
2026-04-21 00:42 30.36373 -111.89589 36019 ft 425 kts 306°
2026-04-21 00:43 30.40180 -111.94828 36019 ft 425 kts 306°
2026-04-21 00:43 30.43993 -112.00085 36011 ft 425 kts 306°
2026-04-21 00:44 30.47784 -112.05318 35997 ft 426 kts 306°
2026-04-21 00:44 30.51608 -112.10603 35990 ft 426 kts 306°
2026-04-21 00:45 30.57305 -112.18490 35979 ft 426 kts 306°
2026-04-21 00:45 30.61115 -112.23774 35973 ft 427 kts 306°
2026-04-21 00:46 30.64918 -112.29057 35961 ft 428 kts 306°
2026-04-21 00:46 30.68712 -112.34332 35960 ft 425 kts 306°
2026-04-21 00:47 30.72507 -112.39616 35954 ft 428 kts 306°
2026-04-21 00:47 30.76312 -112.44921 35950 ft 427 kts 306°
2026-04-21 00:48 30.80119 -112.50236 35952 ft 427 kts 306°
2026-04-21 00:48 30.83907 -112.55533 35947 ft 427 kts 306°
2026-04-21 00:49 30.87722 -112.60873 35949 ft 427 kts 306°
2026-04-21 00:49 30.91513 -112.66189 35952 ft 426 kts 306°
2026-04-21 00:50 30.95289 -112.71491 35950 ft 427 kts 306°
2026-04-21 00:50 30.99075 -112.76811 35945 ft 427 kts 306°
2026-04-21 00:51 31.02876 -112.82164 35941 ft 427 kts 306°
2026-04-21 00:51 31.06664 -112.87503 35942 ft 427 kts 306°
2026-04-21 00:52 31.10429 -112.92819 35935 ft 430 kts 306°
2026-04-21 00:52 31.14241 -112.98205 35940 ft 427 kts 306°
2026-04-21 00:53 31.18034 -113.03576 35939 ft 429 kts 306°
2026-04-21 00:53 31.21825 -113.08950 35939 ft 430 kts 305°
2026-04-21 00:54 31.25620 -113.14336 35940 ft 430 kts 306°
2026-04-21 00:54 31.29421 -113.19739 35938 ft 432 kts 306°
2026-04-21 00:55 31.33204 -113.25123 35940 ft 430 kts 306°
2026-04-21 00:55 31.36962 -113.30629 35934 ft 432 kts 301°
2026-04-21 00:56 31.40253 -113.36421 35935 ft 429 kts 300°
2026-04-21 00:56 31.43533 -113.42252 35942 ft 432 kts 300°
2026-04-21 00:57 31.46834 -113.48130 35934 ft 432 kts 300°
2026-04-21 00:57 31.50126 -113.54004 35933 ft 432 kts 300°
2026-04-21 00:58 31.53411 -113.59874 35927 ft 432 kts 300°
2026-04-21 00:58 31.56698 -113.65758 35928 ft 432 kts 300°
2026-04-21 00:59 31.59987 -113.71653 35930 ft 432 kts 300°
2026-04-21 00:59 31.63269 -113.77548 35922 ft 434 kts 300°
2026-04-21 01:00 31.66555 -113.83455 35923 ft 433 kts 300°
2026-04-21 01:00 31.69856 -113.89401 35914 ft 434 kts 300°
2026-04-21 01:01 31.73145 -113.95333 35916 ft 434 kts 300°
2026-04-21 01:01 31.76417 -114.01245 35916 ft 436 kts 300°
2026-04-21 01:02 31.79706 -114.07196 35916 ft 434 kts 300°
2026-04-21 01:02 31.82997 -114.13159 35922 ft 434 kts 299°
2026-04-21 01:03 31.86276 -114.19111 35920 ft 437 kts 299°
2026-04-21 01:03 31.89561 -114.25082 35924 ft 435 kts 299°
2026-04-21 01:04 31.92863 -114.31094 35916 ft 437 kts 300°
2026-04-21 01:04 31.96141 -114.37073 35920 ft 436 kts 300°
2026-04-21 01:05 31.99460 -114.43134 35912 ft 436 kts 299°
2026-04-21 01:05 32.02727 -114.49111 35908 ft 439 kts 300°
2026-04-21 01:06 32.06023 -114.55149 35908 ft 438 kts 299°
2026-04-21 01:06 32.09317 -114.61195 35908 ft 438 kts 299°
2026-04-21 01:07 32.12620 -114.67268 35913 ft 440 kts 299°
2026-04-21 01:07 32.15927 -114.73355 35907 ft 439 kts 299°
2026-04-21 01:08 32.19207 -114.79403 35912 ft 440 kts 299°
2026-04-21 01:08 32.22501 -114.85487 35905 ft 442 kts 299°
2026-04-21 01:09 32.24169 -114.88573 35657 ft 446 kts 299°
2026-04-21 01:09 32.25843 -114.91675 34618 ft 457 kts 299°
2026-04-21 01:09 32.27552 -114.94841 33432 ft 465 kts 299°
2026-04-21 01:09 32.29280 -114.98045 32555 ft 468 kts 300°
2026-04-21 01:10 32.31019 -115.01269 32000 ft 463 kts 300°
2026-04-21 01:10 32.32735 -115.04452 31903 ft 447 kts 300°
2026-04-21 01:10 32.34378 -115.07500 31898 ft 431 kts 300°
2026-04-21 01:10 32.35966 -115.10451 31914 ft 425 kts 299°
2026-04-21 01:11 32.39165 -115.16408 31902 ft 432 kts 300°
2026-04-21 01:11 32.42385 -115.22409 31914 ft 431 kts 299°
2026-04-21 01:12 32.45597 -115.28406 31915 ft 431 kts 299°
2026-04-21 01:12 32.48801 -115.34398 31911 ft 430 kts 299°
2026-04-21 01:13 32.51996 -115.40380 31912 ft 431 kts 299°
2026-04-21 01:13 32.55201 -115.46394 31919 ft 432 kts 299°
2026-04-21 01:14 32.58400 -115.52402 31913 ft 432 kts 299°
2026-04-21 01:14 32.61596 -115.58418 31910 ft 433 kts 299°
2026-04-21 01:15 32.64777 -115.64414 31918 ft 432 kts 299°
2026-04-21 01:15 32.67985 -115.70477 31907 ft 432 kts 299°
2026-04-21 01:16 32.70826 -115.75858 31926 ft 431 kts 298°
2026-04-21 01:16 32.74003 -115.81887 31919 ft 432 kts 298°
2026-04-21 01:17 32.77184 -115.87930 31924 ft 431 kts 298°
2026-04-21 01:17 32.80370 -115.93996 31923 ft 433 kts 298°
2026-04-21 01:18 32.83442 -116.00066 31861 ft 426 kts 297°
2026-04-21 01:18 32.84956 -116.03097 31552 ft 428 kts 297°
2026-04-21 01:18 32.86463 -116.06116 31111 ft 433 kts 297°
2026-04-21 01:19 32.88026 -116.09244 30642 ft 439 kts 297°
2026-04-21 01:19 32.89566 -116.12329 30422 ft 439 kts 297°
2026-04-21 01:19 32.91112 -116.15424 30263 ft 432 kts 298°
2026-04-21 01:19 32.92629 -116.18460 29886 ft 426 kts 297°
2026-04-21 01:20 32.94143 -116.21494 29429 ft 422 kts 297°
2026-04-21 01:20 32.95635 -116.24490 28944 ft 419 kts 297°
2026-04-21 01:20 32.97111 -116.27454 28472 ft 415 kts 298°
2026-04-21 01:20 32.98568 -116.30381 28008 ft 412 kts 298°
2026-04-21 01:21 33.00027 -116.33315 27544 ft 408 kts 298°
2026-04-21 01:21 33.01480 -116.36240 27079 ft 405 kts 298°
2026-04-21 01:21 33.02903 -116.39105 26612 ft 402 kts 298°
2026-04-21 01:21 33.04303 -116.41933 26152 ft 398 kts 297°
2026-04-21 01:22 33.05516 -116.44878 25765 ft 393 kts 292°
2026-04-21 01:22 33.06651 -116.47903 25572 ft 406 kts 291°
2026-04-21 01:22 33.07807 -116.50996 25338 ft 408 kts 291°
2026-04-21 01:22 33.08954 -116.54061 25080 ft 405 kts 291°
2026-04-21 01:23 33.10083 -116.57080 24820 ft 403 kts 291°
2026-04-21 01:23 33.11229 -116.60149 24547 ft 401 kts 291°
2026-04-21 01:23 33.12360 -116.63179 24269 ft 400 kts 291°
2026-04-21 01:23 33.13308 -116.66266 23997 ft 395 kts 282°
2026-04-21 01:24 33.13864 -116.69471 23545 ft 397 kts 277°
2026-04-21 01:24 33.14344 -116.72701 22990 ft 396 kts 277°
2026-04-21 01:24 33.14820 -116.75948 22472 ft 393 kts 277°
2026-04-21 01:24 33.15288 -116.79137 21989 ft 389 kts 277°
2026-04-21 01:25 33.15748 -116.82275 21519 ft 385 kts 277°
2026-04-21 01:25 33.16205 -116.85402 21056 ft 381 kts 277°
2026-04-21 01:25 33.16658 -116.88506 20603 ft 378 kts 277°
2026-04-21 01:25 33.17106 -116.91580 20133 ft 375 kts 277°
2026-04-21 01:26 33.17545 -116.94602 19683 ft 371 kts 277°
2026-04-21 01:26 33.17986 -116.97643 19220 ft 368 kts 277°
2026-04-21 01:26 33.18415 -117.00603 18768 ft 365 kts 277°
2026-04-21 01:26 33.18848 -117.03597 18323 ft 362 kts 277°
2026-04-21 01:27 33.19274 -117.06543 17875 ft 359 kts 277°
2026-04-21 01:27 33.19697 -117.09479 17432 ft 357 kts 277°
2026-04-21 01:27 33.20111 -117.12357 16987 ft 356 kts 277°
2026-04-21 01:27 33.20528 -117.15256 16543 ft 354 kts 277°
2026-04-21 01:28 33.20939 -117.18127 16096 ft 351 kts 277°
2026-04-21 01:28 33.21349 -117.20984 15665 ft 349 kts 277°
2026-04-21 01:28 33.21755 -117.23825 15238 ft 347 kts 277°
2026-04-21 01:28 33.22162 -117.26678 14804 ft 345 kts 277°
2026-04-21 01:29 33.22563 -117.29492 14370 ft 344 kts 277°
2026-04-21 01:29 33.22958 -117.32267 13950 ft 342 kts 277°
2026-04-21 01:29 33.23387 -117.35068 13654 ft 338 kts 278°
2026-04-21 01:29 33.23822 -117.37821 13431 ft 341 kts 278°
2026-04-21 01:30 33.24262 -117.40612 13181 ft 339 kts 278°
2026-04-21 01:30 33.24689 -117.43343 12926 ft 338 kts 278°
2026-04-21 01:30 33.25118 -117.46097 12666 ft 337 kts 278°
2026-04-21 01:30 33.25545 -117.48850 12406 ft 336 kts 278°
2026-04-21 01:31 33.25973 -117.51576 12146 ft 335 kts 280°
2026-04-21 01:31 33.26803 -117.54182 11888 ft 338 kts 297°
2026-04-21 01:31 33.28022 -117.56596 11739 ft 338 kts 300°
2026-04-21 01:31 33.29287 -117.58949 11592 ft 339 kts 301°
2026-04-21 01:32 33.30561 -117.61305 11433 ft 338 kts 301°
2026-04-21 01:32 33.31843 -117.63680 11263 ft 337 kts 301°
2026-04-21 01:32 33.33100 -117.66015 11088 ft 336 kts 300°
2026-04-21 01:32 33.34358 -117.68353 10919 ft 336 kts 300°
2026-04-21 01:33 33.35625 -117.70712 10774 ft 335 kts 300°
2026-04-21 01:33 33.36885 -117.73057 10628 ft 333 kts 300°
2026-04-21 01:33 33.38104 -117.75328 10433 ft 324 kts 300°
2026-04-21 01:33 33.39303 -117.77560 10277 ft 313 kts 300°
2026-04-21 01:34 33.40461 -117.79722 10119 ft 304 kts 300°
2026-04-21 01:34 33.41591 -117.81830 9988 ft 294 kts 300°
2026-04-21 01:34 33.42675 -117.83856 9845 ft 287 kts 300°
2026-04-21 01:34 33.43740 -117.85847 9672 ft 285 kts 300°
2026-04-21 01:35 33.44815 -117.87860 9508 ft 285 kts 300°
2026-04-21 01:35 33.45887 -117.89865 9359 ft 284 kts 300°
2026-04-21 01:35 33.46948 -117.91824 9202 ft 284 kts 304°
2026-04-21 01:35 33.48419 -117.93390 9063 ft 285 kts 330°
2026-04-21 01:36 33.50254 -117.94372 8927 ft 287 kts 338°
2026-04-21 01:36 33.52109 -117.95190 8771 ft 286 kts 339°
2026-04-21 01:36 33.54005 -117.96008 8610 ft 285 kts 339°
2026-04-21 01:36 33.55866 -117.96815 8481 ft 284 kts 339°
2026-04-21 01:37 33.57706 -117.97613 8345 ft 283 kts 339°
2026-04-21 01:37 33.59575 -117.98427 8198 ft 283 kts 339°
2026-04-21 01:37 33.61429 -117.99234 8055 ft 282 kts 339°
2026-04-21 01:37 33.63277 -118.00021 7903 ft 282 kts 342°
2026-04-21 01:38 33.65157 -118.00696 7653 ft 282 kts 343°
2026-04-21 01:38 33.67034 -118.01358 7403 ft 279 kts 343°
2026-04-21 01:38 33.68878 -118.02022 7171 ft 276 kts 343°
2026-04-21 01:38 33.70710 -118.02689 7005 ft 272 kts 343°
2026-04-21 01:39 33.72546 -118.03359 6987 ft 276 kts 343°
2026-04-21 01:39 33.74380 -118.04030 6981 ft 274 kts 343°
2026-04-21 01:39 33.76183 -118.04690 6971 ft 266 kts 343°
2026-04-21 01:39 33.77985 -118.05350 6523 ft 276 kts 343°
2026-04-21 01:40 33.79818 -118.06104 6065 ft 281 kts 338°
2026-04-21 01:40 33.81621 -118.07011 5796 ft 277 kts 337°
2026-04-21 01:40 33.83367 -118.07877 5615 ft 265 kts 338°
2026-04-21 01:40 33.85049 -118.08695 5442 ft 259 kts 338°
2026-04-21 01:41 33.86721 -118.09499 5255 ft 254 kts 338°
2026-04-21 01:41 33.88350 -118.10281 5081 ft 249 kts 339°
2026-04-21 01:41 33.90010 -118.10693 4910 ft 243 kts 356°
2026-04-21 01:41 33.91626 -118.11137 4708 ft 237 kts 330°
2026-04-21 01:42 33.92794 -118.12447 4435 ft 228 kts 300°
2026-04-21 01:42 33.93429 -118.14142 4130 ft 216 kts 291°
2026-04-21 01:42 33.93970 -118.15760 3849 ft 204 kts 291°
2026-04-21 01:42 33.94490 -118.17315 3564 ft 196 kts 291°
2026-04-21 01:43 33.94986 -118.18813 3315 ft 191 kts 291°
2026-04-21 01:43 33.95419 -118.20308 3044 ft 188 kts 279°
2026-04-21 01:43 33.95415 -118.21873 2794 ft 186 kts 263°
2026-04-21 01:43 33.95241 -118.23408 2552 ft 183 kts 262°
2026-04-21 01:44 33.95084 -118.24909 2310 ft 178 kts 263°
2026-04-21 01:44 33.94940 -118.26375 2077 ft 174 kts 262°
2026-04-21 01:44 33.94798 -118.27793 1846 ft 167 kts 262°
2026-04-21 01:44 33.94664 -118.29131 1632 ft 153 kts 262°
2026-04-21 01:45 33.94540 -118.30362 1437 ft 145 kts 261°
2026-04-21 01:45 33.94418 -118.31557 1238 ft 143 kts 261°
2026-04-21 01:45 33.94297 -118.32726 1038 ft 141 kts 261°
2026-04-21 01:45 33.94174 -118.33890 840 ft 139 kts 261°
2026-04-21 01:46 33.94056 -118.35035 662 ft 138 kts 262°
2026-04-21 01:46 33.93946 -118.36196 462 ft 141 kts 262°
2026-04-21 01:46 33.93823 -118.37382 276 ft 142 kts 262°
2026-04-21 01:46 33.93706 -118.38551 120 ft 139 kts 262°
2026-04-21 01:47 33.93600 -118.39558 119 ft 99 kts 263°
2026-04-21 01:47 33.93538 -118.40197 127 ft 54 kts 263°
2026-04-21 01:47 33.93507 -118.40509 131 ft 30 kts 262°
2026-04-21 01:47 33.93487 -118.40669 133 ft 2 kts 250°
2026-04-21 01:48 33.93465 -118.40704 133 ft 8 kts 216°
2026-04-21 01:48 33.93413 -118.40707 133 ft 5 kts 165°
2026-04-21 01:48 33.93374 -118.40652 133 ft 13 kts 94°
2026-04-21 01:48 33.93382 -118.40527 131 ft 15 kts 83°
2026-04-21 01:49 33.93397 -118.40394 130 ft 16 kts 84°
2026-04-21 01:49 33.93412 -118.40252 128 ft 17 kts 83°
2026-04-21 01:49 33.93427 -118.40102 126 ft 18 kts 83°
2026-04-21 01:49 33.93442 -118.39944 124 ft 19 kts 83°
2026-04-21 01:50 33.93459 -118.39780 122 ft 20 kts 83°
2026-04-21 01:50 33.93478 -118.39611 119 ft 20 kts 84°
2026-04-21 01:50 33.93496 -118.39433 117 ft 21 kts 83°
2026-04-21 01:50 33.93513 -118.39255 116 ft 21 kts 84°
2026-04-21 01:51 33.93532 -118.39075 114 ft 21 kts 83°
2026-04-21 01:51 33.93549 -118.38897 113 ft 21 kts 83°
2026-04-21 01:51 33.93568 -118.38717 112 ft 21 kts 83°
2026-04-21 01:51 33.93582 -118.38559 112 ft 10 kts 96°
2026-04-21 01:52 33.93530 -118.38512 112 ft 10 kts 182°
2026-04-21 01:52 33.93437 -118.38515 112 ft 4 kts 181°
2026-04-21 01:52 33.93407 -118.38525 112 ft 4 kts 219°
2026-04-21 01:53 33.93390 -118.38560 112 ft 5 kts 257°
2026-04-21 01:53 33.93389 -118.38572 112 ft 0 kts 264°
2026-04-21 01:53 33.93388 -118.38577 112 ft 1 kts 261°
2026-04-21 01:53 33.93388 -118.38583 112 ft 0 kts 267°